When you browse on this site, cookies collect data to enhance your experience and personalize the content and advertising you see.
Visit our Privacy Policy to learn more. By continuing to use the site, you agree to this use of cookies and data.
  • In Deutschland
  • Länderverzeichnis
  • Für 7 Tage
  • Wassertemperatur
  • Wetterkarte
  • Widgets
  • user-avatar
    Anmelden

    Stündliche Wetter Sewan

    Heute, 19 September, Donnerstag

    Zeit Temperatur Niederschläge Wind Luftdruck Luftfeuchtigkeit
    00:00 +18°C° 0 mm 1 m/S 644 mmHg 39%
    01:00 +18°C° 0 mm 1 m/S 644 mmHg 40%
    02:00 +16°C° 0 mm 1 m/S 644 mmHg 40%
    03:00 +16°C° 0 mm 1 m/S 643 mmHg 41%
    04:00 +16°C° 0 mm 1 m/S 643 mmHg 41%
    05:00 +15°C° 0 mm 1 m/S 643 mmHg 42%
    06:00 +15°C° 0 mm 1 m/S 643 mmHg 43%
    07:00 +19°C° 0 mm 1 m/S 644 mmHg 39%
    08:00 +21°C° 0 mm 1 m/S 645 mmHg 35%
    09:00 +23°C° 0 mm 1 m/S 645 mmHg 31%
    10:00 +24°C° 0 mm 1 m/S 645 mmHg 29%
    11:00 +25°C° 0 mm 2 m/S 645 mmHg 27%
    12:00 +26°C° 0 mm 2 m/S 646 mmHg 25%
    13:00 +27°C° 0 mm 2 m/S 645 mmHg 23%
    14:00 +27°C° 0 mm 2 m/S 645 mmHg 22%
    15:00 +27°C° 0 mm 2 m/S 645 mmHg 20%
    16:00 +25°C° 0 mm 1 m/S 645 mmHg 24%
    17:00 +24°C° 0 mm 1 m/S 644 mmHg 27%
    18:00 +20°C° 0 mm 0 m/S 644 mmHg 31%
    19:00 +21°C° 0 mm 1 m/S 644 mmHg 33%
    20:00 +19°C° 0 mm 2 m/S 644 mmHg 35%
    21:00 +19°C° 0 mm 2 m/S 644 mmHg 38%
    22:00 +18°C° 0 mm 2 m/S 644 mmHg 39%
    23:00 +18°C° 0 mm 3 m/S 644 mmHg 40%

    Morgen, 20 September, Freitag

    Zeit Temperatur Niederschläge Wind Luftdruck Luftfeuchtigkeit
    00:00 +18°C° 0 mm 3 m/S 644 mmHg 41%
    01:00 +17°C° 0 mm 2 m/S 643 mmHg 42%
    02:00 +17°C° 0 mm 2 m/S 643 mmHg 43%
    03:00 +16°C° 0 mm 2 m/S 642 mmHg 44%
    04:00 +16°C° 0 mm 2 m/S 642 mmHg 44%
    05:00 +16°C° 0 mm 2 m/S 642 mmHg 44%
    06:00 +15°C° 0 mm 2 m/S 642 mmHg 45%
    07:00 +18°C° 0 mm 2 m/S 643 mmHg 40%
    08:00 +20°C° 0 mm 2 m/S 643 mmHg 35%
    09:00 +24°C° 0 mm 2 m/S 644 mmHg 30%
    10:00 +25°C° 0 mm 2 m/S 644 mmHg 28%
    11:00 +26°C° 0 mm 3 m/S 644 mmHg 25%
    12:00 +27°C° 0 mm 4 m/S 643 mmHg 23%
    13:00 +27°C° 0 mm 4 m/S 643 mmHg 21%
    14:00 +28°C° 0 mm 4 m/S 642 mmHg 20%
    15:00 +28°C° 0 mm 4 m/S 642 mmHg 18%
    16:00 +26°C° 0 mm 3 m/S 641 mmHg 21%
    17:00 +24°C° 0 mm 2 m/S 640 mmHg 24%
    18:00 +23°C° 0 mm 1 m/S 640 mmHg 27%
    19:00 +21°C° 0 mm 2 m/S 640 mmHg 27%
    20:00 +21°C° 0 mm 2 m/S 640 mmHg 27%
    21:00 +20°C° 0 mm 3 m/S 640 mmHg 27%
    22:00 +20°C° 0 mm 3 m/S 640 mmHg 28%
    23:00 +20°C° 0 mm 3 m/S 639 mmHg 30%

    übermorgen, 21 September, Samstag

    Zeit Temperatur Niederschläge Wind Luftdruck Luftfeuchtigkeit
    00:00 +19°C° 0 mm 3 m/S 639 mmHg 31%
    01:00 +19°C° 0 mm 2 m/S 639 mmHg 33%
    02:00 +18°C° 0 mm 2 m/S 638 mmHg 34%
    03:00 +18°C° 0 mm 2 m/S 638 mmHg 36%
    04:00 +17°C° 0 mm 2 m/S 638 mmHg 39%
    05:00 +16°C° 0 mm 2 m/S 637 mmHg 43%
    06:00 +15°C° 0 mm 2 m/S 637 mmHg 46%
    07:00 +17°C° 0 mm 2 m/S 637 mmHg 42%
    08:00 +19°C° 0 mm 3 m/S 638 mmHg 38%
    09:00 +21°C° 0 mm 3 m/S 638 mmHg 34%
    10:00 +22°C° 0 mm 4 m/S 639 mmHg 31%
    11:00 +23°C° 0 mm 6 m/S 639 mmHg 29%
    12:00 +24°C° 0 mm 7 m/S 639 mmHg 26%
    13:00 +24°C° 0 mm 7 m/S 639 mmHg 27%
    14:00 +24°C° 0 mm 6 m/S 639 mmHg 28%
    15:00 +24°C° 0 mm 6 m/S 639 mmHg 29%
    16:00 +21°C° 0 mm 5 m/S 639 mmHg 36%
    17:00 +19°C° 0 mm 4 m/S 639 mmHg 43%
    18:00 +17°C° 0 mm 3 m/S 639 mmHg 50%
    19:00 +16°C° 0 mm 3 m/S 639 mmHg 51%
    20:00 +13°C° 0 mm 3 m/S 640 mmHg 51%
    21:00 +12°C° 0 mm 3 m/S 641 mmHg 52%
    22:00 +11°C° 0 mm 3 m/S 641 mmHg 52%
    23:00 +10°C° 0 mm 2 m/S 641 mmHg 52%

    22 September, Sonntag

    Zeit Temperatur Niederschläge Wind Luftdruck Luftfeuchtigkeit
    00:00 +9°C° 0 mm 2 m/S 641 mmHg 52%
    01:00 +9°C° 0 mm 2 m/S 641 mmHg 51%
    02:00 +8°C° 0 mm 2 m/S 641 mmHg 51%
    03:00 +8°C° 0 mm 2 m/S 641 mmHg 51%
    04:00 +7°C° 0 mm 2 m/S 641 mmHg 50%
    05:00 +8°C° 0 mm 1 m/S 642 mmHg 50%
    06:00 +8°C° 0 mm 1 m/S 642 mmHg 50%
    07:00 +10°C° 0 mm 1 m/S 643 mmHg 45%
    08:00 +12°C° 0 mm 1 m/S 643 mmHg 40%
    09:00 +14°C° 0 mm 2 m/S 644 mmHg 36%
    10:00 +15°C° 0 mm 2 m/S 644 mmHg 33%
    11:00 +16°C° 0 mm 2 m/S 644 mmHg 31%
    12:00 +18°C° 0 mm 2 m/S 644 mmHg 28%
    13:00 +18°C° 0 mm 2 m/S 644 mmHg 28%
    14:00 +19°C° 0 mm 2 m/S 644 mmHg 28%
    15:00 +19°C° 0 mm 2 m/S 643 mmHg 28%
    16:00 +17°C° 0 mm 2 m/S 643 mmHg 35%
    17:00 +15°C° 0 mm 1 m/S 642 mmHg 42%
    18:00 +14°C° 0 mm 1 m/S 641 mmHg 49%
    19:00 +13°C° 0 mm 2 m/S 641 mmHg 53%
    20:00 +12°C° 0 mm 2 m/S 642 mmHg 57%
    21:00 +11°C° 0 mm 3 m/S 642 mmHg 61%
    22:00 +10°C° 0 mm 3 m/S 642 mmHg 62%
    23:00 +10°C° 0 mm 3 m/S 641 mmHg 62%

    23 September, Montag

    Zeit Temperatur Niederschläge Wind Luftdruck Luftfeuchtigkeit
    00:00 +10°C° 0 mm 2 m/S 641 mmHg 62%
    01:00 +10°C° 0 mm 2 m/S 641 mmHg 62%
    02:00 +9°C° 0 mm 2 m/S 641 mmHg 63%
    03:00 +9°C° 0 mm 2 m/S 641 mmHg 64%
    04:00 +9°C° 0 mm 2 m/S 641 mmHg 64%
    05:00 +10°C° 0 mm 1 m/S 641 mmHg 65%
    06:00 +9°C° 0 mm 1 m/S 641 mmHg 66%
    07:00 +12°C° 0 mm 1 m/S 642 mmHg 59%
    08:00 +14°C° 0 mm 1 m/S 643 mmHg 52%
    09:00 +16°C° 0 mm 1 m/S 644 mmHg 45%
    10:00 +18°C° 0 mm 2 m/S 644 mmHg 42%
    11:00 +19°C° 0 mm 2 m/S 644 mmHg 38%
    12:00 +20°C° 0 mm 2 m/S 644 mmHg 34%
    13:00 +21°C° 0 mm 2 m/S 644 mmHg 32%
    14:00 +21°C° 0 mm 2 m/S 644 mmHg 30%
    15:00 +23°C° 0 mm 1 m/S 644 mmHg 28%
    16:00 +21°C° 0 mm 1 m/S 643 mmHg 36%
    17:00 +19°C° 0 mm 1 m/S 643 mmHg 44%
    18:00 +16°C° 0 mm 1 m/S 642 mmHg 52%
    19:00 +15°C° 0 mm 2 m/S 642 mmHg 55%
    20:00 +13°C° 0 mm 3 m/S 643 mmHg 58%
    21:00 +13°C° 0 mm 4 m/S 643 mmHg 61%
    22:00 +12°C° 0 mm 3 m/S 643 mmHg 61%
    23:00 +12°C° 0 mm 3 m/S 643 mmHg 61%

    24 September, Dienstag

    Zeit Temperatur Niederschläge Wind Luftdruck Luftfeuchtigkeit
    00:00 +11°C° 0 mm 3 m/S 643 mmHg 61%
    01:00 +11°C° 0 mm 3 m/S 643 mmHg 63%
    02:00 +10°C° 0 mm 3 m/S 643 mmHg 66%
    03:00 +10°C° 0 mm 2 m/S 643 mmHg 68%
    04:00 +10°C° 0 mm 2 m/S 643 mmHg 70%
    05:00 +9°C° 0 mm 2 m/S 643 mmHg 72%
    06:00 +9°C° 0 mm 2 m/S 643 mmHg 74%
    07:00 +12°C° 0 mm 2 m/S 643 mmHg 67%
    08:00 +14°C° 0 mm 2 m/S 644 mmHg 60%
    09:00 +16°C° 0 mm 1 m/S 645 mmHg 54%
    10:00 +17°C° 0 mm 2 m/S 645 mmHg 49%
    11:00 +19°C° 0 mm 2 m/S 645 mmHg 45%
    12:00 +20°C° 0 mm 2 m/S 645 mmHg 41%
    13:00 +21°C° 0 mm 2 m/S 644 mmHg 38%
    14:00 +21°C° 0 mm 2 m/S 644 mmHg 35%
    15:00 +23°C° 0 mm 2 m/S 644 mmHg 32%
    16:00 +20°C° 0 mm 2 m/S 643 mmHg 37%
    17:00 +19°C° 0 mm 1 m/S 642 mmHg 43%
    18:00 +15°C° 0 mm 0 m/S 642 mmHg 48%
    19:00 +16°C° 0 mm 1 m/S 642 mmHg 48%
    20:00 +16°C° 0 mm 1 m/S 642 mmHg 48%
    21:00 +15°C° 0 mm 2 m/S 642 mmHg 48%
    22:00 +15°C° 0 mm 2 m/S 641 mmHg 47%
    23:00 +15°C° 0 mm 2 m/S 641 mmHg 47%
    Mehr zeigen